Location: Burland Observatory
(39.4088°N, 105.4217°W)
Time: 12:43:05
(UTC-07:00)

Vanguard 3 - Pass Details

Date: 13 December 2019
Orbit: 508 x 3263 km, 33.3° (Epoch: 19 January)

Event Time Altitude Azimuth Distance (km) Brightness Sun altitude
Rises 12:33:25 0° 277° (W) 5,167 11.3 26.8°
Reaches altitude 10° 12:36:36 10° 270° (W) 4,506 11.2 26.7°
Maximum altitude 12:48:48 41° 206° (SSW) 3,599 12.2 26.2°
Drops below altitude 10° 13:05:51 10° 146° (SE) 6,179 12.3 25.3°
Sets 13:11:14 0° 139° (SE) 7,208 12.4 25.0°
